Home > Weather > Geesthacht > Past weeks

Flag for Germany Past Weather in Geesthacht, Schleswig-Holstein, Germany — Yesterday and Last 2 Weeks

Now
64 °F

Partly sunny.


Feels Like: 64 °F
Forecast: 60 / 71 °F
Wind: 7 mph from East

Location: Hamburg-Fuhlsbuettel

Current Time: May 31, 2016 at 9:50:42 AM

Latest Report: May 31, 2016 at 9:20 AM


Visibility: N/A

Pressure: 29.83 "Hg

Humidity: 88%

Dew Point: 61 °F

Location of GeesthachtLocation

Past Weather in Geesthacht — Graph

°F

Geesthacht Temperature Yesterday

Maximum temperature yesterday: 81 °F (at 4:20 PM)
Minimum temperature yesterday: 59 °F (at 1:50 AM)
Average temperature yesterday: 68 °F

High & Low Weather Summary for the Past Weeks

 TemperatureHumidityPressure
High82 °F (May 22, 2:50 PM)100% (May 18, 12:50 AM)30.07 "Hg (May 18, 12:50 AM)
Low41 °F (May 18, 12:50 AM)27% (May 19, 3:20 PM)29.65 "Hg (May 30, 3:20 PM)
Average59 °F79%29.90 "Hg
* Reported May 16 8:20 AM — May 31 8:20 AM, Geesthacht, Weather by CustomWeather, © 2016

Note: Actual official high and low records may vary slightly from our data, if they occured in-between our weather recording intervals... More about our weather records

Advertising

Geesthacht Weather History for the Previous 24 Hours

Scroll right to see more
 ConditionsComfort  
Time TempWeatherWind HumidityBarometerVisibility
8:20 AM
Tue, May 31
63 °FPartly sunny.6 mph94%29.83 "Hg5 mi
7:50 AM63 °FPartly sunny.7 mph94%29.83 "Hg4 mi
7:20 AM63 °FPartly sunny.6 mph94%29.80 "Hg4 mi
6:50 AM61 °FPartly sunny.6 mph94%29.80 "Hg4 mi
6:20 AM61 °FPartly sunny.6 mph94%29.80 "Hg4 mi
5:50 AM61 °FPassing clouds.5 mph94%29.80 "Hg4 mi
5:20 AM61 °FPartly cloudy.7 mph94%29.80 "Hg4 mi
4:50 AM59 °FFog.7 mph100%29.77 "Hg3 mi
4:20 AM59 °FPassing clouds.7 mph94%29.77 "Hg4 mi
3:50 AM59 °FClear.7 mph94%29.77 "Hg6 mi
3:20 AM61 °FClear.8 mph94%29.77 "Hg10 mi
2:50 AM61 °FClear.8 mph94%29.77 "Hg10 mi
2:20 AM61 °FClear.8 mph94%29.77 "Hg10 mi
1:50 AM63 °FClear.8 mph88%29.77 "Hg10 mi
1:20 AM63 °FClear.14 mph94%29.77 "Hg10 mi
12:50 AM63 °FClear.13 mph94%29.77 "Hg10 mi
12:20 AM63 °FClear.8 mph94%29.77 "Hg10 mi
11:50 PM
Mon, May 30
64 °FClear.7 mph88%29.74 "Hg10 mi
11:20 PM64 °FClear.8 mph88%29.74 "Hg10 mi
10:50 PM64 °FClear.9 mph88%29.74 "Hg10 mi
10:20 PM66 °FPassing clouds.13 mph83%29.74 "HgN/A
9:50 PM66 °FSunny.13 mph83%29.74 "Hg10 mi
9:20 PM66 °FSunny.10 mph83%29.74 "Hg10 mi
8:50 PM68 °FSprinkles. Broken clouds.9 mph83%29.74 "HgN/A
8:20 PM68 °FSprinkles. Scattered clouds.8 mph88%29.71 "HgN/A
7:50 PM70 °FSprinkles. Broken clouds.10 mph78%29.71 "HgN/A
7:20 PM72 °FScattered showers. Partly sunny.9 mph73%29.71 "HgN/A
6:50 PM72 °FBroken clouds.12 mph73%29.68 "HgN/A
6:20 PM73 °FPartly sunny.10 mph69%29.68 "HgN/A
5:50 PM73 °FBroken clouds.10 mph69%29.68 "HgN/A
5:20 PM75 °FScattered showers. Broken clouds.13 mph65%29.68 "HgN/A
4:50 PM75 °FThunderstorms. Partly sunny.14 mph69%29.65 "HgN/A
4:20 PM81 °FThunderstorms. Partly sunny.14 mph62%29.65 "HgN/A
3:50 PM79 °FPassing clouds.13 mph61%29.65 "HgN/A
3:20 PM79 °FPassing clouds.10 mph65%29.65 "HgN/A
2:50 PM77 °FScattered clouds.14 mph69%29.68 "HgN/A
2:20 PM77 °FPassing clouds.15 mph69%29.68 "HgN/A
1:50 PM77 °FPassing clouds.13 mph65%29.68 "HgN/A
1:20 PM75 °FPassing clouds.14 mph69%29.68 "HgN/A
12:50 PM75 °FPassing clouds.14 mph69%29.68 "HgN/A
12:20 PM73 °FPassing clouds.14 mph69%29.68 "HgN/A
11:50 AM73 °FPassing clouds.13 mph69%29.68 "HgN/A
11:20 AM73 °FPassing clouds.12 mph69%29.68 "HgN/A
10:50 AM72 °FPassing clouds.12 mph73%29.68 "HgN/A
10:20 AM70 °FSunny.13 mph73%29.68 "Hg10 mi
9:50 AM70 °FPassing clouds.12 mph73%29.68 "HgN/A
9:20 AM68 °FSunny.12 mph78%29.71 "Hg10 mi
Weather by CustomWeather, © 2016

See weather overviewHow to use our weather pages